WetterOnline ( http://www.wetteronline.de )

Wetter aktuell Beeskow

Aktuelles Wetter: Lindenberg b. Beeskow (104m)

6-stündlich | Neueste Meldungen
Ortszeit Temperatur Wetter
Di, 20.02. 13:00 2.2° C leicht bewölkt
Di, 20.02. 7:00 -3.1° C leicht bewölkt
Di, 20.02. 1:00 -1.5° C leicht bewölkt
Mo, 19.02. 19:00 1.5° C leicht bewölkt
Mo, 19.02. 13:00 3.4° C leicht bewölkt
Mo, 19.02. 7:00 -0.9° C bedeckt
Mo, 19.02. 1:00 0.5° C bedeckt
So, 18.02. 19:00 1.2° C bedeckt
Ortszeit Temperatur Wetter
Di, 20.02. 18:30 0.5° C fast wolkenlos
Di, 20.02. 18:10 0.5° C wolkig
Di, 20.02. 18:00 0.9° C leicht bewölkt
Di, 20.02. 17:50 0.9° C bedeckt
Di, 20.02. 17:40 1.1° C bedeckt
Di, 20.02. 17:30 1.4° C leicht bewölkt
Di, 20.02. 17:00 2.4° C leicht bewölkt
Di, 20.02. 16:30 3.0° C leicht bewölkt
Di, 20.02. 16:00 3.3° C leicht bewölkt
Di, 20.02. 15:30 3.6° C leicht bewölkt
Ortszeit Relative Feuchte Sichtweite
Di, 20.02. 13:00 53% 12 km
Di, 20.02. 7:00 88% 4.0 km
Di, 20.02. 1:00 81% 8 km
Mo, 19.02. 19:00 66% 15 km
Mo, 19.02. 13:00 61% 15 km
Mo, 19.02. 7:00 81% 20 km
Mo, 19.02. 1:00 76% 30 km
So, 18.02. 19:00 73% 25 km
Ortszeit Relative Feuchte Sichtweite
Di, 20.02. 18:30 60% 15 km
Di, 20.02. 18:10 60% -
Di, 20.02. 18:00 59% 15 km
Di, 20.02. 17:50 59% -
Di, 20.02. 17:40 59% -
Di, 20.02. 17:30 59% 15 km
Di, 20.02. 17:00 54% 15 km
Di, 20.02. 16:30 52% 15 km
Di, 20.02. 16:00 51% 15 km
Di, 20.02. 15:30 51% 17 km
Ortszeit Niederschlagsmenge Niederschlagsart
Di, 20.02. 13:00 0.0 l/m2 in 6 Std. -
Di, 20.02. 7:00 0.0 l/m2 in 12 Std. -
Di, 20.02. 1:00 0.0 l/m2 in 6 Std. -
Mo, 19.02. 19:00 0.0 l/m2 in 12 Std. -
Mo, 19.02. 13:00 0.0 l/m2 in 6 Std. -
Mo, 19.02. 7:00 0.0 l/m2 in 12 Std. -
Mo, 19.02. 1:00 0.0 l/m2 in 6 Std. -
So, 18.02. 19:00 0.0 l/m2 in 12 Std. -
Ortszeit Niederschlagsmenge Niederschlagsart
Di, 20.02. 18:30 0.0 l/m2 in 1 Std. -
Di, 20.02. 18:10 keine Meldung -
Di, 20.02. 18:00 0.0 l/m2 in 1 Std. -
Di, 20.02. 17:50 keine Meldung -
Di, 20.02. 17:40 keine Meldung -
Di, 20.02. 17:30 0.0 l/m2 in 1 Std. -
Di, 20.02. 17:00 0.0 l/m2 in 1 Std. -
Di, 20.02. 16:30 0.0 l/m2 in 1 Std. -
Di, 20.02. 16:00 0.0 l/m2 in 1 Std. -
Di, 20.02. 15:30 0.0 l/m2 in 1 Std. -
Ortszeit Stärke Spitze Richtung
km/h Bft. km/h Grad Sektor
Di, 20.02. 13:00 13 3 30 80° O
Di, 20.02. 7:00 9 2 24 80° O
Di, 20.02. 1:00 11 2 18 80° O
Mo, 19.02. 19:00 7 2 18 90° O
Mo, 19.02. 13:00 7 2 18 170° S
Mo, 19.02. 7:00 7 2 18 150° SO
Mo, 19.02. 1:00 6 1 11 170° S
So, 18.02. 19:00 4 1 14 160° S
Ortszeit Stärke Spitze Richtung
km/h Bft. km/h Grad Sektor
Di, 20.02. 18:30 9 2 20 70° O
Di, 20.02. 18:10 11 2 - 70° O
Di, 20.02. 18:00 11 2 18 60° NO
Di, 20.02. 17:50 11 2 - 60° NO
Di, 20.02. 17:40 11 2 - 60° NO
Di, 20.02. 17:30 7 2 19 50° NO
Di, 20.02. 17:00 11 2 22 60° NO
Di, 20.02. 16:30 11 2 22 60° NO
Di, 20.02. 16:00 9 2 20 60° NO
Di, 20.02. 15:30 7 2 20 60° NO
Ortszeit Untergrenze Bedeckung Gattung
total tief tief mittel hoch
Di, 20.02. 13:00 6600 m 6/8 8/8 - - Ci
Di, 20.02. 7:00 3900 m 2/8 2/8 - Ac -
Di, 20.02. 1:00 3600 m 7/8 7/8 - As -
Mo, 19.02. 19:00 3600 m 7/8 7/8 - As -
Mo, 19.02. 13:00 3600 m 5/8 2/8 - As Ci
Mo, 19.02. 7:00 1140 m 8/8 7/8 Sc - -
Mo, 19.02. 1:00 900 m 8/8 8/8 Sc - -
So, 18.02. 19:00 900 m 8/8 8/8 Sc - -
Ortszeit Bedeckungsgrad in Achtel und Wolkenuntergrenze
Di, 20.02. 18:30 1(3900m)
Di, 20.02. 18:10 5(3900m)
Di, 20.02. 18:00 2(6900m)
Di, 20.02. 17:50 9 9 9
Di, 20.02. 17:40 9 9 9
Di, 20.02. 17:30 2(6000m) 9 9
Di, 20.02. 17:00 2(6000m) 1(3900m) 2(6300m)
Di, 20.02. 16:30 3(6000m)
Di, 20.02. 16:00 3(6000m)
Di, 20.02. 15:30 2(4500m)
Ortszeit Luftdruck NN (hPa) Tendenz (hPa in 3 Std.)
Di, 20.02. 13:00 1020 - 0,3
Di, 20.02. 7:00 1020 + 0,1
Di, 20.02. 1:00 1020 - 0,4
Mo, 19.02. 19:00 1021 - 0,5
Mo, 19.02. 13:00 1022 - 1,4
Mo, 19.02. 7:00 1024 - 1,0
Mo, 19.02. 1:00 1027 - 1,3
So, 18.02. 19:00 1029 - 0,7
Ortszeit Luftdruck NN (hPa) Tendenz (hPa in 3 Std.)
Di, 20.02. 18:30 1021 + 1,2
Di, 20.02. 18:10 1021 keine Meldung
Di, 20.02. 18:00 1021 + 1,0
Di, 20.02. 17:50 1021 keine Meldung
Di, 20.02. 17:40 1021 keine Meldung
Di, 20.02. 17:30 1021 + 0,8
Di, 20.02. 17:00 1020 + 0,4
Di, 20.02. 16:30 1020 + 0,2
Di, 20.02. 16:00 1020 0,0
Di, 20.02. 15:30 1020 - 0,1
Ortszeit Schneehöhe (cm)
Di, 20.02. 13:00 0
Di, 20.02. 7:00 0
Di, 20.02. 1:00 0
Mo, 19.02. 19:00 0
Mo, 19.02. 13:00 0
Mo, 19.02. 7:00 0
Mo, 19.02. 1:00 0
So, 18.02. 19:00 0
Ortszeit Schneehöhe (cm)
Di, 20.02. 18:30 -
Di, 20.02. 18:10 -
Di, 20.02. 18:00 -
Di, 20.02. 17:50 -
Di, 20.02. 17:40 -
Di, 20.02. 17:30 -
Di, 20.02. 17:00 -
Di, 20.02. 16:30 -
Di, 20.02. 16:00 -
Di, 20.02. 15:30 -
Link zu dieser Seite / Seite empfehlen

Das Wetter in ...